Timeline UpdatesTrip UpdatesNews PostsPvt PostsTravel TipsAdmin PostsConv PostsFollowed PostsChat RequestsBlog PostsPNR Posts

Disclaimer
Search
 
 
Wed Sep 17, 2014 01:01:33 ISTHomeTrainsΣChainsAtlasPNRForumGalleryNewsFAQTripsMembersLoginFeedback
No Recent News for this Train
Other Trains in the News **new
Latest...
.
Sat Feb 22, 2014 (10:28PM)
⇐ Return Journey: Train# 58111

58112/Itwari-Tatanagar Jn Passenger

Time-Table HAS CHANGED.
Sep 03 (1:12PM)
Change Departure Station:
Change Arrival Station:
Post a Train Travel TipPost a Train Travel Tip **new
Post a Comment/Question/Picture/VideoPost a Comment/Question/Picture/Video
Pantry/Catering
✕ NO Pantry Car
✕ NO Catering
RSA - Rake Sharing
Rake/Coach Composition
ENG:SLR-1 UR-3 SL-4 UR-3 VP-1 SLR-1; Entry# 189608 ; Author: sunilsagitarius
Loco
WAM-4 TATA Shed; Entry# 545455
News    PNR    Forum    Time-Table    Availability    Fare Chart    Map    Arr/Dep History    Trips    Gallery    ΣChains    X/O    Timeline    
Travel Time: 12h 58m    57 halts    Distance: 492 km    Avg Speed: 37 km/hr
Type: Passenger
Zone: SER/South Eastern
Departs @ 21:30 (Avg 4m late)
Platform# ???
SMTWTFS
Itwari/ITR 
Arrives @ 10:28 +1 night (Avg 34m late)
Platform# ???
SMTWTFS
Sakti/SKT 

57 halts. 66 intermediate Stations between Itwari and Sakti

Show ALL intermediate Stations  Show Old Time-Table

#CodeStation NameX/OArrivesAvgDepartsAvgHaltPFDay#KmSpeedElevZoneAddress
1ITR»Itwari (3)»  -21:30+4--10.021306mSECRNagpur, Maharashtra
2KAVKalamna (3)  21:38+821:40+142m--12.851296mSECRNagpur, Maharashtra
3KPKamptee (3)X  21:50 21:49+1421:52 21:51+182m--110.526290mSECRKamptee, Maharashtra
4KNHNKanhan Junction (3)  22:02+1522:04+152m--115.286288mSECRKanhan, Maharashtra
5SALSalwa (2)X  22:08+1922:10+192m--121.066289mSECRNagpur, Maharashtra
6CHCRChacher (2)O  22:16+2022:18+212m--127.563284mSECRNagpur, Maharashtra
7TARTharsa (3)X  22:24+2222:26+232m--133.868292mSECRNagpur, Maharashtra
8RRLRewral (2)X  22:31+2522:33+252m--139.577293mSECRNagpur Distt, Maharashtra
9KHATKhat (2)  22:40+2522:42+262m--148.554286mSECRNagpur, Maharashtra
10BRDBhandara Road (3)X  22:53+1622:55+182m--158.454266mSECRState Highway 252 Bhandara District, Maharashtra
11TMRTumsar Road (3)O  23:15+2023:20+185m--176.488267mSECRBhandara, Maharashtra
12MNUMundikota (2)X  23:27+2323:29+232m--186.767269mSECRBhandara, Maharashtra
13TROTirora (3)  23:38+2223:40+222m--196.768282mSECRDist Gondia, Maharashtra
14KWNKachewani (3)  23:46+2623:48+272m--1103.672303mSECRKachewani Gondia District, Maharashtra
15GJGangajhari (3)  23:55+2823:57+282m--1111.937315mSECRGondia District, Maharashtra
16GGondia Junction (7)  00:25 00:20+900:35 00:30+1110m32126.0102316mSECRGondia 441601, Maharashtra
17GDMGudma (2)  00:43 00:37+2200:45 00:39+222m--2137.973323mSECRGondia, Maharashtra
18AGNAmgaon (2)  00:54 00:48+2200:56 00:50+222m--2148.888317mSECRGondia, Maharashtra
19SKSSalekasa (2)X  01:07 01:00+2401:09 01:02+252m--2163.653312mSECRRajnandgaon, Chhattisgarh
20DKSDarekasa (2)  01:22 01:15+2501:24 01:17+262m--2175.166381mSECRRajnandgaon, Chhattisgarh
21BTLBortalao (2)X  01:31 01:24+2601:33 01:26+302m--2182.853409mSECRRajnandgaon, Chhattisgarh
22PJBPaniajob (2)X  01:43 01:36+3101:45 01:38+332m--2191.627363mSECRRajnandgaon, Chhattisgarh
23DGGDongargarh (2)  02:00 01:55+2602:10 02:05+2710m--2199.3130 SECRDongargarh, Chhattisgarh
24JTRJatkanhar  02:14 02:08+3202:16 02:10+312m--2205.866330mSECRRajnandgaon, Chhattisgarh
25MUAMusra  02:22 02:16+3102:24 02:18+322m--2212.565323mSECRRajnandgaon, Chhattisgarh
26RJNRaj Nandgaon (3)  02:40 02:35+2902:45 02:40+295m--2230.8100313mSECRRajnandgaon, Chhattisgarh
27MUPMurhipar  02:54 02:49+3402:56 02:51+342m--2245.817319mSECRRajnandgaon, Chhattisgarh
28DURGDurg Junction (6)X  03:55 03:45+304:00 03:50+65m--2261.354299mSECRPh: 91-788-2322059, Chhattisgarh
29BQRBhilai Nagar (2)X  04:06 03:55+804:07 03:57+91 2m--2265.866298mSECRBhilai, Chhattisgarh
30BPHBBhilai Power House (3)  04:11 04:01+004:13 04:03+02m--2270.256312mSECRBhilai, Chhattisgarh
31BIABhilai (2)  04:18 04:08+1004:20 04:10+102m--2274.952309mSECRBhilai, Chhattisgarh
32DBECDevbaloda Charoda  04:24 04:14+004:26 04:16+02m--2278.323310mSECRBhilai, Chhattisgarh
33KMIKumhari (2)XO  04:46 04:36+1304:48 04:38+132m--2285.820287mSECRKumhari, Chhattisgarh
34RRaipur Junction (6)X  05:15+1105:35+1020m--2298.252297mSECRRaipur, Chhattisgarh
35WRCWRS Colony PH  05:38-05:40-2m--2300.836286mSECRRaipur, Chhattisgarh
36URKUrkura  05:46 05:45+1205:48 05:47+122m--2303.986275mSECRRaipur, Chhattisgarh
37MDHMandharX  05:55 05:53+1205:56 05:55+141 2m--2312.472281mSECRDonde Kalan, Chhattisgarh
38SLHSiliariX  06:05 06:03+1706:06 06:05+191 2m--2322.063280mSECRBanjari Rd, Chhattisgarh
39BKTHBaikunthX  06:15 06:13+2106:17 06:15+192m--2330.346287mSECRBanjari Rd, Chhattisgarh
40TLDTilda (3)X  06:25 06:23+1506:27 06:25+152m--2336.480 SECRBanjari Rd, Chhattisgarh
41HNHathbandhX  06:35 06:33+1706:37 06:35+182m--2347.184283mSECRRaipur, Chhattisgarh
42BYTBhatapara (4)X  06:48 06:46+2006:50 06:48+212m--2362.568270mSECRBanjari Road, Chhattisgarh
43NPINipania  07:05 07:01+2007:06 07:03+201 2m--2377.271259mSECRNational Highway 200, Chhattisgarh
44DGSDagoriX  07:15 07:10+2207:16 07:12+221 2m--2385.592254mSECRCollege Road, Chhattisgarh
45BYLBelha  07:21 07:17+2607:23 07:19+252m--2393.158269mSECRCollege Road, Chhattisgarh
46CHBTChakarbhathaX  07:28 07:25-07:30 07:26-2 1m--2399.037285mSECRBilaspur, Chhattisgarh
47DPHDadhapara (3)XO  07:35 07:31+2907:37 07:32+302 1m--2402.08272mSECRBilaspur, Chhattisgarh
48BSPBilaspur Junction (8)X  08:25+808:40+1315m22408.748271mSECRBilaspur, Chhattisgarh
49GTWGatoraX  08:48+1608:50+172m--2415.157268mSECRBilaspur, Chhattisgarh
50JRMGJairamnagarX  08:58+1809:00+182m--2422.867272mSECRNational Highway 200, Chhattisgarh
51KTSHKotmi Sonar HaltX  09:06-09:08-2m--2429.564266mSECRKotmisunar, Chhattisgarh
52AKTAkaltara (4)X  09:14+2109:16+212m--2435.958284mSECRDist. Janjgir Champa, Chhattisgarh
53KPNAKapan (1)O  09:23 09:24-09:25 09:26-2m12443.654263mSECRNational Highway 200, Chhattisgarh
54NIANailaX  09:34+2109:36+232m--2450.834273mSECRJanjgir, Chhattisgarh
55CPHChampa Junction (3)X  09:55+2010:00+245m--2461.777264mSECRNational Highway 200 (07819-245767), Chhattisgarh
56SGRDSaragaon Road  10:07-10:08-1m--2470.679254mSECRNational Highway 200, Chhattisgarh
57BUABaradwarX  10:12 10:13+3010:14 10:15+322m--2477.261 SECRJanjgir-Champa, Chhattisgarh
58JDDAJetha  10:21 10:22-10:22 10:23-1m--2484.393244mSECRNational Highway 200, Chhattisgarh
59SKT•Sakti (4)•  10:28+3410:30+382m--2492.156237mSECRJanjgir-Champa, Chhattisgarh
60JDIJharradih  10:41+3810:43+422m--2502.263247mSECRRaigarh, Chhattisgarh
61KHSKharsia  10:48+4010:50+412m--2507.573 SECRNational Highway 200, Chhattisgarh
62ROBRobertson  10:57+4210:59+422m--2516.077239mSECRRaigarh, Chhattisgarh
63BEFBhupdeopur  11:07 11:06+4911:09 11:08+492m--2525.079243mSECRRaigarh, Chhattisgarh
64KDTRKirodimalnagar (5)O  11:16 11:15+5311:18 11:17+542m--2534.224240mSECRRaigarh, Chhattisgarh
65RIGRaigarh (3)O  11:35+4711:40+515m--2541.497220mSECRRaigarh, Chhattisgarh
66KRLKotarliaO  11:46+5811:48+592m--2551.273229mSECRRaigarh, Chhattisgarh
67JMGJamga  11:55+1:0211:57+1:192m--2559.772233mSECRJamga Station, Chhattisgarh
68DAODaghoraX  12:08 12:07+1:2112:10 12:09+1:212m--2571.634269mSECRRaigarh, Chhattisgarh
69HGRHimgir  12:23 12:22+1:1512:25 12:24+1:172m--2579.081275mSECRNational Highway 200, Chhattisgarh
70BPHBelpahar  12:35 12:34+1:2212:37 12:36+1:242m--2592.533 SECRBelpahar, Odisha
71BRJNBrajrajnagar  12:58 12:52+1:1313:00 12:54+1:132m--2601.47212mSECRBrajrajnagar, Odisha
72IBIbXO  13:28 13:18+5713:30 13:20+592m--2604.17207mSECRJharsuguda, Odisha
73JSGJharsuguda Junction (5)X  14:35+1814:55+2520m--2613.157236mSERJharsuguda, Odisha
74DTVDhutra  15:04+3315:05+401m--2621.747240mSERJharsuguda, Odisha
75PNPLPanpaliX  15:12-15:13-1m--2627.156258mSERJharsuguda, Odisha
76BEHBagdihi (3)O  15:20+3915:21+431m--2633.754257mSERState Highway 24 PH: 06640-286227, Odisha
77DIHDharuadihi  15:28+4515:29+471m--2640.064258mSERSH 24, Odisha
78BMBBamra (3)  15:38+4215:39+461m--2649.656259mSERBamra PH : 06642-229268, Odisha
79TGMTangarmundaX  15:48+4915:49+501m--2658.058264mSERSundargarh, Odisha
80GPHGarpos (3)  15:57+5115:58+551m--2665.847281mSERSundargarh, Odisha
81SOGRSograO  16:04+5916:05+1:021m--2670.555293mSERState Highway 10, Odisha
82SXNSonakhan  16:12+5816:13+1:011m--2676.955249mSERSundargarh, Odisha
83GPRaj Gangpur (3)  16:21+5816:22+1:041m--2684.255237mSERRaj Ganpur, Odisha
84KXNKanshbahal  16:32+1:1116:33+1:131m--2693.453217mSERSundargarh, Odisha
85KLGKalunga  16:41+1:1416:42+1:191m--2700.550203mSERSundargarh, Odisha
86PPOPanposh (2)XO  16:51+1:2016:52+1:221m--2708.08190mSERRourkela, Odisha
87ROURourkela Junction (5)  17:40+2818:40+2960m42714.060198mSERRourkela, Odisha
88KCABBondamunda K Cabin new halt!!  18:46-18:47-1m--2720.06214mSERRourkela, Odisha
89BNDMBondamunda (2)  18:53+1:0018:54+1:001m--2720.541213mSERRourkela, Odisha
90BZRBisra  19:05+5619:06+571m--2728.158224mSERSundargarh, Odisha
91BULBhalulata  19:13+5819:14+591m--2734.950239mSERRourkela, Jharkhand
92JRAJaraikelaX  19:23+5819:24+1:001m--2742.468215mSERJaraikela Station, Jharkhand
93MOUManoharpurX  19:34+1:0219:35+1:061m--2753.831228mSERManoharpur, Jharkhand
94PSTPosotia (4)X  19:52 19:56+1:0519:53 19:57+1:081m--2764.851279mSERPosotia Station, Jharkhand
95DRWNDerowan P. HaltX  20:01 20:05-20:02 20:06-1m--2771.628275mSERDerowan, Jharkhand
96MXWMahadevsal new halt!!  20:15+4520:16+461m--2775.954321mSERMahadevsal, Jharkhand
97GOLGoilkera (2)  20:18 20:22+1:1020:19 20:23+1:121m--2781.351333mSERGoilkera, Jharkhand
98TUXTunia  20:27 20:31+1:0820:28 20:32+1:091m--2788.145297mSERTunia Station, Jharkhand
99SWRSonua  20:36 20:40+1:0320:37 20:41+1:121m--2794.169287mSERSonua, Jharkhand
100LPHLotapaharX  20:47 20:51+1:1520:48 20:52+1:241m--2805.525251mSERLotapahar Station, Jharkhand
101CKPChakradharpur (3)  21:10 21:15+1:0721:50+4440 35m--2815.164235mSERChakradharpur (West Singhbhum), Jharkhand
102BRMBarabamboX  22:00+1:5022:01+1:501m--2825.756213mSERBarabambo Station, Jharkhand
103RKSNRajkharsawan Junction (3)  22:11+4322:12+441m--2835.150189mSERSaraikela Kharswan District, Jharkhand
104MMVMahali Marup (2)  22:21+5822:22+591m--2842.751183mSERMahali Marup Station, Jharkhand
105SINISini Junction (3)X  22:31+5422:32+1:181m22850.448182mSERNational Highway 33, Jharkhand
106BRBSBirbans  22:41-22:42-1m--2857.654171mSERBirbans, Jharkhand
107GMHGamharia (3)X  22:52+1:0822:53+1:081m22866.740165mSERJamshedpur, Jharkhand
108ADTPAdityapur (3)  23:02+023:03+01m22872.75152mSERJamshedpur, Jharkhand
109TATATatanagar Junction (5)  00:05+4-43877.3-164mSER91-657-2423026, Jharkhand
Scroll to Top
Scroll to Bottom